MDT,Max TemperatureF,Mean TemperatureF,Min TemperatureF,Max Dew PointF,MeanDew PointF,Min DewpointF,Max Humidity, Mean Humidity, Min Humidity, Max Sea Level PressureIn, Mean Sea Level PressureIn, Min Sea Level PressureIn, Max VisibilityMiles, Mean VisibilityMiles, Min VisibilityMiles, Max Wind SpeedMPH, Mean Wind SpeedMPH, Max Gust SpeedMPH,PrecipitationIn, CloudCover, Events, WindDirDegrees
2011-10-1,91,68,45,41,38,35,65,40,15,30.02,29.96,29.91,10,10,10,13,5,21,0.00,0,,134
2011-10-2,95,70,44,43,40,37,76,45,14,29.96,29.88,29.80,10,10,10,17,6,24,0.00,0,,185
2011-10-3,90,72,53,47,44,39,64,43,21,29.96,29.90,29.84,10,10,10,8,4,13,0.00,0,,237
2011-10-4,96,72,47,47,42,29,86,50,14,29.88,29.77,29.66,10,10,10,26,10,37,0.00,0,,171
2011-10-5,87,77,66,48,39,31,47,33,19,29.70,29.61,29.55,10,10,10,37,21,46,0.00,0,,165
2011-10-6,80,67,54,61,53,48,90,63,36,29.54,29.45,29.32,10,10,10,30,18,39,0.04,3,Rain,156
2011-10-7,73,58,42,46,34,26,77,50,22,29.87,29.62,29.50,10,10,10,44,18,55,0.00,0,,225
2011-10-8,56,50,43,47,44,38,83,78,72,30.20,30.07,29.88,10,10,5,20,9,26,0.10,6,Rain,355
2011-10-9,50,49,47,46,46,45,93,90,86,30.20,30.10,29.97,10,8,4,17,8,22,0.08,8,Rain,346
2011-10-10,69,55,40,46,42,36,93,62,30,29.96,29.83,29.75,10,10,8,18,5,23,T,2,Rain,196
2011-10-11,72,53,34,43,39,31,92,63,34,29.75,29.68,29.63,10,10,10,18,5,22,0.00,1,,252
2011-10-12,69,54,39,47,38,32,77,52,27,29.95,29.86,29.71,10,10,10,30,15,38,0.02,3,Rain,295
2011-10-13,67,52,37,33,29,23,76,49,22,29.98,29.93,29.87,10,10,10,32,14,43,0.00,0,Rain,286
2011-10-14,59,48,36,33,28,20,70,47,23,30.11,30.05,29.98,10,10,9,21,10,25,T,5,Snow,286
2011-10-15,71,51,30,38,33,27,85,56,27,30.03,29.92,29.75,10,10,10,16,6,20,0.00,2,,12
2011-10-16,59,49,38,40,27,15,76,48,19,30.18,30.08,30.02,10,10,10,18,7,24,T,2,,321
2011-10-17,60,47,34,37,28,18,86,54,21,30.19,30.11,30.00,10,10,10,24,9,29,0.02,4,Rain,330
2011-10-18,63,46,28,28,25,20,78,49,19,30.32,30.25,30.18,10,10,10,29,10,36,0.00,2,Rain,312
2011-10-19,54,40,25,30,26,17,85,62,38,30.25,30.18,30.11,10,10,10,13,6,17,0.00,1,,83
2011-10-20,62,41,20,31,25,17,84,56,27,30.11,30.02,29.94,10,10,10,12,4,14,0.00,0,,112
2011-10-21,71,54,37,47,37,32,93,60,26,30.14,30.07,29.98,10,10,10,21,9,28,T,3,Rain,303
2011-10-22,70,55,39,44,39,36,92,63,33,30.11,30.04,29.93,10,10,10,18,7,22,T,2,Rain,260
2011-10-23,72,57,41,41,36,32,86,56,25,30.02,29.95,29.88,10,10,10,24,11,33,0.00,1,,280
2011-10-24,65,48,31,36,34,28,92,63,34,30.06,29.93,29.81,10,10,10,18,10,25,0.00,1,,68
2011-10-25,53,45,36,38,34,28,85,69,53,30.25,30.07,29.84,10,10,10,25,12,31,T,3,,332
2011-10-26,52,38,23,31,27,20,85,59,32,30.31,30.25,30.17,10,10,9,15,7,18,0.01,1,Snow,305
2011-10-27,57,38,19,27,19,16,84,52,20,30.17,30.11,30.02,10,10,10,18,8,23,0.00,1,,286
2011-10-28,57,39,20,24,19,15,81,51,20,30.29,30.19,30.01,10,10,10,18,7,26,0.00,0,,278
2011-10-29,63,42,21,34,23,15,84,52,19,30.04,29.90,29.77,10,10,10,32,6,41,T,2,,301
2011-10-30,59,43,26,28,22,18,78,50,21,30.10,30.07,30.03,10,10,10,26,10,35,0.00,0,,287
2011-10-31,76,49,22,39,25,17,81,49,16,30.02,29.86,29.74,10,10,10,29,7,36,0.00,0,,271